Location: De Greiden
(52.9496°N, 5.9137°E)
Time: 23:36:24
(UTC+00:00)

CZ-2C R/B - Pass Details

Date: 24 January 2021
Orbit: 785 x 870 km, 98.2° (Epoch: 01 March)

Event Time Altitude Azimuth Distance (km) Brightness Sun altitude
Exits shadow 18:10:33 31° 91° (E) 1,468 3.4 -18.3°
Maximum altitude 18:10:39 31° 93° (E) 1,467 3.4 -18.4°
Drops below altitude 10° 18:15:35 10° 155° (SSE) 2,510 5.0 -19.1°
Sets 18:18:15 0° 165° (SSE) 3,446 5.8 -19.5°
